Location: Gunnison Valley Observatory
(38.5087°N, 106.9386°W)
Time: 20:28:05
(UTC-06:00)

Amateur Radio Satellites - All Passes

Search period start: 24 September 2017 19:58
Search period end: 25 September 2017 19:58
Location: Gunnison Valley Observatory, 38.5087°N, 106.9386°W

Satellite Date Start Highest point End Downlink Frequencies (MHz)
Time Altitude Azimuth
SEEDS 24 Sep 20:10:56 20:15:05 54° 260° (W) 20:19:16 437.485
STARS 24 Sep 20:14:32 20:16:42 14° 296° (WNW) 20:18:53 437.465
ISS 24 Sep 20:16:19 20:19:26 43° 136° (SE) 20:22:35 437.550
JUGNU 24 Sep 20:26:43 20:28:53 12° 180° (S) 20:31:03 437.505
BEESAT 3 24 Sep 20:26:43 20:30:26 36° 306° (NW) 20:34:12 437.485
AAUSAT CUBESAT 2 24 Sep 20:29:48 20:33:57 77° 257° (WSW) 20:38:08 437.432
Oscar 11 24 Sep 20:30:35 20:34:36 38° 72° (ENE) 20:38:39 .
STRAND 1 24 Sep 20:31:12 20:36:21 69° 102° (ESE) 20:41:28 437.568
AO-73 24 Sep 20:32:39 20:36:54 58° 74° (ENE) 20:41:16 145.935
ZACube-1 24 Sep 20:36:13 20:40:31 73° 76° (ENE) 20:44:58 437.345
BEESAT 2 24 Sep 20:36:33 20:40:33 86° 125° (SE) 20:44:37 435.950
CUTE 1.7 + AOD 2 24 Sep 20:43:22 20:45:53 15° 268° (W) 20:48:24 437.475
nSIGHT-1 24 Sep 20:53:15 20:56:26 63° 323° (NW) 20:59:39 .
Tancredo 1 24 Sep 20:55:51 20:56:51 11° 338° (NNW) 20:57:50 437.200
Max Valier Satellite 24 Sep 21:02:34 21:03:56 12° 66° (ENE) 21:05:18 145.860
XW-2A 24 Sep 21:07:45 21:09:14 12° 267° (W) 21:10:44 145.665 - 145.685
HO-68 24 Sep 21:21:26 21:25:11 15° 270° (W) 21:28:58 435.675
NO-84 24 Sep 21:27:25 21:29:25 17° 234° (SW) 21:31:22 435.350 FM
UWE-3 24 Sep 21:29:52 21:32:25 15° 269° (W) 21:35:01 435.000/436.395/437.385
AO-85 24 Sep 21:37:51 21:40:54 22° 311° (NW) 21:44:00 145.980
DELFI C3 24 Sep 21:46:35 21:50:28 60° 76° (ENE) 21:54:22 145.870
ISS 24 Sep 21:53:22 21:56:02 22° 333° (NNW) 21:58:43 437.550
FO-29 24 Sep 21:53:50 21:59:16 49° 101° (E) 22:05:20 435.910
SRMSAT 24 Sep 21:55:44 21:56:14 10° 172° (S) 21:56:44 437.500
EO-88 24 Sep 21:57:55 22:01:23 42° 74° (ENE) 22:04:53 145.990 - 145.960
Oscar 11 24 Sep 22:07:59 22:10:51 17° 267° (W) 22:13:44 .
AO-73 24 Sep 22:12:08 22:13:30 11° 270° (W) 22:14:53 145.935
STRAND 1 24 Sep 22:12:13 22:14:55 14° 298° (WNW) 22:17:36 437.568
UNISAT 6 24 Sep 22:14:07 22:17:58 25° 95° (E) 22:21:48 437.425
BEESAT 2 24 Sep 22:17:50 22:18:52 11° 318° (NW) 22:19:55 435.950
PCSat 24 Sep 22:23:26 22:25:16 12° 41° (NE) 22:27:05 145.827
nSIGHT-1 24 Sep 22:31:35 22:33:17 13° 341° (NNW) 22:34:59 .
Max Valier Satellite 24 Sep 22:33:48 22:37:19 43° 261° (W) 22:40:54 145.860
YUBILEINY 24 Sep 22:34:22 22:41:13 25° 68° (ENE) 22:48:02 435.215
TIGRISAT 24 Sep 22:37:00 22:41:25 39° 98° (E) 22:45:48 435.000
PRISM 24 Sep 22:47:31 22:50:54 25° 96° (E) 22:54:15 437.425
LO-87 24 Sep 22:50:36 22:53:21 22° 70° (ENE) 22:56:07 145.935 - 145.965
ESTCUBE 1 24 Sep 22:51:32 22:54:47 20° 67° (ENE) 22:58:04 437.505/2401.250
SO-50 24 Sep 23:02:57 23:07:31 66° 57° (ENE) 23:12:09 436.795
EO-88 24 Sep 23:34:22 23:35:14 11° 269° (W) 23:36:06 145.990 - 145.960
FO-29 24 Sep 23:39:54 23:44:06 22° 294° (WNW) 23:48:37 435.910
SRMSAT 24 Sep 23:42:28 23:44:28 12° 182° (S) 23:46:28 437.500
UNISAT 6 24 Sep 23:50:31 23:54:38 31° 290° (WNW) 23:58:45 437.425
PCSat 25 Sep 00:04:15 00:09:41 69° 60° (ENE) 00:15:03 145.827
AIST 2D 25 Sep 00:04:18 00:07:40 42° 98° (E) 00:10:59 435.315
DUCHIFAT 1 25 Sep 00:07:28 00:09:30 13° 92° (E) 00:11:31 145.980
TIGRISAT 25 Sep 00:14:23 00:17:47 20° 293° (WNW) 00:21:11 435.000
POLYITAN 1 25 Sep 00:22:07 00:25:42 25° 96° (E) 00:29:16 437.675
PRISM 25 Sep 00:22:50 00:26:03 23° 291° (WNW) 00:29:14 437.425
LO-87 25 Sep 00:24:07 00:26:41 19° 265° (W) 00:29:16 145.935 - 145.965
EO-79 25 Sep 00:25:52 00:29:35 28° 96° (E) 00:33:16 145.935-145.965
ESTCUBE 1 25 Sep 00:27:07 00:31:19 37° 262° (W) 00:35:32 437.505/2401.250
YUBILEINY 25 Sep 00:30:03 00:38:41 68° 268° (W) 00:47:20 435.215
SPROUT 25 Sep 00:37:35 00:41:46 68° 76° (ENE) 00:46:00 437.525
QB50P2 25 Sep 00:39:42 00:43:50 45° 99° (E) 00:47:56 145.880/145.840
SO-50 25 Sep 00:45:29 00:47:25 13° 252° (WSW) 00:49:23 436.795
VELOX 1 25 Sep 00:49:20 00:53:42 68° 75° (ENE) 00:58:04 145.980
ISS 25 Sep 01:10:21 01:11:14 11° 13° (NNE) 01:12:07 437.550
NANOSAT C BR1 25 Sep 01:13:31 01:17:48 88° 291° (WNW) 01:22:04 145.865
Oscar 19 25 Sep 01:22:03 01:24:00 12° 90° (E) 01:25:56 437.125/150
50 SAT 25 Sep 01:29:29 01:32:44 60° 76° (ENE) 01:36:00 437.505
AIST 2D 25 Sep 01:39:49 01:40:25 10° 294° (WNW) 01:41:01 435.315
Tancredo 1 25 Sep 01:40:20 01:42:58 50° 36° (NE) 01:45:35 437.200
DUCHIFAT 1 25 Sep 01:41:17 01:45:23 47° 287° (WNW) 01:49:28 145.980
UKube-1 25 Sep 01:43:34 01:47:38 43° 72° (ENE) 01:51:43 .
nSIGHT-1 25 Sep 01:46:12 01:48:16 16° 22° (NNE) 01:50:20 .
PCSat 25 Sep 01:49:32 01:52:25 15° 257° (WSW) 01:55:18 145.827
M-CUBED/EXP-1 PRIME 25 Sep 01:50:30 01:53:41 48° 105° (ESE) 01:56:50 437.505
DX 1 25 Sep 01:53:22 01:57:42 89° 231° (SW) 02:02:04 434.975-435.025
POLYITAN 1 25 Sep 01:57:50 02:01:22 25° 291° (WNW) 02:04:53 437.675
EO-79 25 Sep 02:01:48 02:05:10 23° 292° (WNW) 02:08:32 145.935-145.965
BUGSAT 1 25 Sep 02:10:23 02:14:38 89° 277° (W) 02:18:52 437.445
QB50P2 25 Sep 02:16:47 02:19:13 15° 295° (WNW) 02:21:38 145.880/145.840
YUBILEINY 25 Sep 02:32:35 02:33:42 10° 286° (WNW) 02:34:49 435.215
ITUPSAT 1 25 Sep 02:34:53 02:38:16 20° 65° (ENE) 02:41:41 437.325
O/OREOS (USA 219) 25 Sep 02:44:03 02:48:33 76° 292° (WNW) 02:53:06 437.305
ISS 25 Sep 02:45:24 02:48:28 35° 32° (NNE) 02:51:32 437.550
Gurwin Techsat 1B 25 Sep 02:55:48 03:01:08 72° 102° (ESE) 03:06:25 435.225
Oscar 19 25 Sep 02:58:39 03:03:48 72° 286° (WNW) 03:08:54 437.125/150
BEESAT 25 Sep 03:09:09 03:13:39 44° 71° (ENE) 03:18:11 436.000
UKube-1 25 Sep 03:21:24 03:23:50 15° 267° (W) 03:26:17 .
nSIGHT-1 25 Sep 03:21:43 03:25:00 89° 56° (NE) 03:28:14 .
MOZHAYETS 4 25 Sep 03:26:38 03:31:11 65° 75° (ENE) 03:35:47
RS-15 25 Sep 03:32:34 03:39:54 19° 97° (E) 03:47:16 29.354- 29.394
AO-7 25 Sep 03:40:21 03:47:15 29° 96° (E) 03:54:08 .
CUBESAT XI-V 25 Sep 03:57:50 04:01:50 29° 69° (ENE) 04:05:52 437.345
ITAMSAT 1 25 Sep 04:07:12 04:11:50 31° 97° (E) 04:16:25 435.822/435.867
ITUPSAT 1 25 Sep 04:11:14 04:15:45 42° 261° (W) 04:20:18 437.325
ISS 25 Sep 04:22:10 04:24:49 22° 228° (SW) 04:27:28 437.550
AO-85 25 Sep 04:28:39 04:32:08 22° 49° (NE) 04:35:49 145.980
Gurwin Techsat 1B 25 Sep 04:37:38 04:40:25 15° 299° (WNW) 04:43:14 435.225
BEESAT 3 25 Sep 04:44:17 04:48:16 78° 57° (ENE) 04:52:10 437.485
BEESAT 25 Sep 04:48:24 04:51:36 18° 267° (W) 04:54:49 436.000
BEESAT 2 25 Sep 04:55:39 04:59:18 31° 52° (NE) 05:02:53 435.950
MOZHAYETS 4 25 Sep 05:07:20 05:08:45 11° 270° (W) 05:10:09
KKS-1 25 Sep 05:11:40 05:16:01 62° 74° (ENE) 05:20:23 437.445
DOVE 4 25 Sep 05:17:51 05:20:01 13° 93° (E) 05:22:13 437.250
STARS 25 Sep 05:31:33 05:35:36 39° 71° (ENE) 05:39:40 437.465
AO-7 25 Sep 05:32:17 05:40:23 60° 293° (WNW) 05:48:27 .
CUBESAT XI-V 25 Sep 05:35:09 05:39:08 27° 265° (W) 05:43:07 437.345
RS-15 25 Sep 05:38:11 05:50:24 80° 117° (ESE) 06:02:44 29.354- 29.394
ITAMSAT 1 25 Sep 05:46:42 05:51:11 30° 292° (WNW) 05:55:40 435.822/435.867
AO-85 25 Sep 06:08:22 06:12:41 43° 244° (WSW) 06:17:18 145.980
CUTE-I 25 Sep 06:09:08 06:11:22 13° 90° (E) 06:13:35 437.470
BEESAT 2 25 Sep 06:33:46 06:36:50 21° 249° (WSW) 06:39:50 435.950
XW-2D 25 Sep 06:40:41 06:44:03 29° 97° (E) 06:47:21 145.860 - 145.880
XW-2F 25 Sep 06:51:32 06:55:03 36° 98° (E) 06:58:31 145.980 - 146.000
KKS-1 25 Sep 06:51:51 06:52:56 11° 269° (W) 06:54:01 437.445
XW-2B 25 Sep 06:52:54 06:56:31 40° 98° (E) 07:00:03 145.730 - 145.750
DOVE 4 25 Sep 06:53:47 06:57:54 47° 286° (WNW) 07:02:12 437.250
HO-68 25 Sep 07:00:35 07:05:08 18° 91° (E) 07:09:39 435.675
NUDT-PHONESAT 25 Sep 07:08:55 07:12:30 45° 99° (E) 07:16:03 437.300
STARS 25 Sep 07:09:18 07:12:04 17° 266° (W) 07:14:52 437.465
XW-2C 25 Sep 07:14:13 07:18:02 81° 102° (ESE) 07:21:48 145.795 - 145.815
AO-7 25 Sep 07:28:23 07:31:26 12° 313° (NW) 07:34:29 .
LilacSat-2 25 Sep 07:28:42 07:32:29 60° 285° (WNW) 07:36:12 437.200
CUBEBUG 2 25 Sep 07:40:03 07:43:14 18° 92° (E) 07:46:25 437.445
KAITUO 1B 25 Sep 07:40:13 07:43:55 62° 284° (WNW) 07:47:34 145.475/437.950
UWE-3 25 Sep 07:45:13 07:46:09 11° 89° (E) 07:47:06 435.000/436.395/437.385
STRAND 1 25 Sep 07:45:32 07:50:37 84° 75° (ENE) 07:55:44 437.568
CUTE-I 25 Sep 07:46:34 07:51:54 73° 285° (WNW) 07:57:13 437.470
RS-15 25 Sep 07:53:20 08:04:16 35° 322° (NW) 08:15:14 29.354- 29.394
SEEDS 25 Sep 07:56:25 07:59:54 26° 95° (E) 08:03:23 437.485
FO-29 25 Sep 08:07:35 08:10:51 16° 64° (ENE) 08:14:01 435.910
AAUSAT CUBESAT 2 25 Sep 08:14:11 08:16:57 17° 93° (E) 08:19:43 437.432
XW-2D 25 Sep 08:15:27 08:17:58 17° 292° (WNW) 08:20:28 145.860 - 145.880
AO-73 25 Sep 08:23:37 08:25:50 13° 91° (E) 08:28:02 145.935
XW-2F 25 Sep 08:26:49 08:28:49 14° 293° (WNW) 08:30:48 145.980 - 146.000
ZACube-1 25 Sep 08:26:57 08:29:55 17° 92° (E) 08:32:51 437.345
CUTE 1.7 + AOD 2 25 Sep 08:27:26 08:31:41 79° 283° (WNW) 08:35:52 437.475
XW-2B 25 Sep 08:28:31 08:30:17 13° 294° (WNW) 08:32:03 145.730 - 145.750
XW-2A 25 Sep 08:28:36 08:31:50 39° 99° (E) 08:35:02 145.665 - 145.685
NUDT-PHONESAT 25 Sep 08:44:49 08:45:55 11° 294° (WNW) 08:47:00 437.300
HO-68 25 Sep 08:46:18 08:53:30 78° 288° (WNW) 09:00:41 435.675
UNISAT 6 25 Sep 09:12:16 09:15:10 18° 66° (ENE) 09:18:06 437.425
CUBEBUG 2 25 Sep 09:15:30 09:20:00 44° 287° (WNW) 09:24:30 437.445
UWE-3 25 Sep 09:18:22 09:23:02 71° 285° (WNW) 09:27:40 435.000/436.395/437.385
SEEDS 25 Sep 09:32:08 09:35:28 23° 291° (WNW) 09:38:45 437.485
TIGRISAT 25 Sep 09:34:29 09:38:10 27° 69° (ENE) 09:41:56 435.000
PRISM 25 Sep 09:36:07 09:38:36 16° 66° (ENE) 09:41:04 437.425
AAUSAT CUBESAT 2 25 Sep 09:48:47 09:52:28 33° 288° (WNW) 09:56:08 437.432
FO-29 25 Sep 09:49:54 09:55:33 60° 258° (WSW) 10:00:46 435.910
Oscar 11 25 Sep 09:54:43 09:59:04 84° 280° (W) 10:03:22 .
AO-73 25 Sep 09:57:53 10:02:21 54° 286° (WNW) 10:06:45 145.935
ZACube-1 25 Sep 10:02:00 10:06:21 43° 288° (WNW) 10:10:39 437.345
XW-2A 25 Sep 10:03:30 10:04:08 10° 294° (WNW) 10:04:46 145.665 - 145.685
Max Valier Satellite 25 Sep 10:05:40 10:08:15 18° 94° (E) 10:10:49 145.860
RS-15 25 Sep 10:14:17 10:22:08 18° 356° (N) 10:29:52 29.354- 29.394
HO-68 25 Sep 10:36:31 10:40:04 15° 306° (NW) 10:43:38 435.675
AIST 2D 25 Sep 10:38:27 10:40:11 13° 68° (ENE) 10:41:55 435.315
UNISAT 6 25 Sep 10:47:28 10:51:31 39° 262° (W) 10:55:42 437.425
DELFI C3 25 Sep 10:59:16 11:03:09 65° 284° (WNW) 11:07:01 145.870
EO-88 25 Sep 11:01:07 11:04:46 70° 100° (E) 11:08:23 145.990 - 145.960
PRISM 25 Sep 11:09:42 11:13:32 38° 261° (W) 11:17:22 437.425
TIGRISAT 25 Sep 11:11:17 11:14:47 24° 265° (W) 11:18:23 435.000
POLYITAN 1 25 Sep 11:13:58 11:16:37 17° 66° (ENE) 11:19:18 437.675
O/OREOS (USA 219) 25 Sep 11:17:25 11:20:20 16° 56° (ENE) 11:23:14 437.305
EO-79 25 Sep 11:17:27 11:20:18 18° 67° (ENE) 11:23:11 145.935-145.965
QB50P2 25 Sep 11:30:56 11:34:31 28° 70° (ENE) 11:38:08 145.880/145.840
YUBILEINY 25 Sep 11:34:02 11:41:09 29° 83° (E) 11:48:15 435.215
Max Valier Satellite 25 Sep 11:38:54 11:42:04 26° 289° (WNW) 11:45:12 145.860
LO-87 25 Sep 11:51:12 11:54:29 32° 98° (E) 11:57:46 145.935 - 145.965
NANOSAT C BR1 25 Sep 12:03:44 12:07:48 53° 74° (ENE) 12:11:55 145.865
AIST 2D 25 Sep 12:09:47 12:13:02 33° 262° (W) 12:16:18 435.315
ESTCUBE 1 25 Sep 12:20:33 12:24:55 49° 100° (E) 12:29:14 437.505/2401.250
SPROUT 25 Sep 12:26:18 12:28:15 13° 92° (E) 12:30:10 437.525
RS-15 25 Sep 12:30:32 12:40:35 29° 32° (NNE) 12:50:11 29.354- 29.394
DUCHIFAT 1 25 Sep 12:30:55 12:35:06 82° 258° (WSW) 12:39:19 145.980
M-CUBED/EXP-1 PRIME 25 Sep 12:33:59 12:38:10 55° 70° (ENE) 12:42:03 437.505
Oscar 19 25 Sep 12:36:55 12:40:14 17° 63° (ENE) 12:43:33 437.125/150
Gurwin Techsat 1B 25 Sep 12:39:27 12:41:31 12° 60° (ENE) 12:43:35 435.225
NO-84 25 Sep 12:40:07 12:44:07 80° 132° (SE) 12:47:48 435.350 FM
VELOX 1 25 Sep 12:42:12 12:44:30 14° 92° (E) 12:46:47 145.980
POLYITAN 1 25 Sep 12:48:07 12:52:04 39° 262° (W) 12:56:02 437.675
EO-79 25 Sep 12:51:55 12:55:46 35° 262° (W) 12:59:40 145.935-145.965
O/OREOS (USA 219) 25 Sep 12:55:34 13:00:02 50° 254° (WSW) 13:04:28 437.305
BUGSAT 1 25 Sep 12:58:23 13:02:15 49° 74° (ENE) 13:06:11 437.445
QB50P2 25 Sep 13:06:59 13:10:16 22° 265° (W) 13:13:35 145.880/145.840
SO-50 25 Sep 13:16:16 13:20:07 28° 113° (ESE) 13:23:57 436.795
LO-87 25 Sep 13:25:39 13:27:36 14° 292° (WNW) 13:29:32 145.935 - 145.965
YUBILEINY 25 Sep 13:28:54 13:37:23 56° 282° (WNW) 13:45:55 435.215
NANOSAT C BR1 25 Sep 13:42:30 13:43:49 11° 269° (W) 13:45:08 145.865
DX 1 25 Sep 13:43:58 13:46:48 17° 94° (E) 13:49:37 434.975-435.025
ESTCUBE 1 25 Sep 13:58:42 14:01:15 15° 295° (WNW) 14:03:50 437.505/2401.250
SPROUT 25 Sep 14:00:13 14:04:23 50° 287° (WNW) 14:08:32 437.525
M-CUBED/EXP-1 PRIME 25 Sep 14:11:13 14:12:43 12° 262° (W) 14:14:10 437.505
Oscar 19 25 Sep 14:13:57 14:19:03 57° 259° (W) 14:24:11 437.125/150
Gurwin Techsat 1B 25 Sep 14:15:23 14:20:42 84° 256° (WSW) 14:26:03 435.225
VELOX 1 25 Sep 14:16:57 14:21:10 47° 287° (WNW) 14:25:22 145.980
NO-84 25 Sep 14:19:28 14:21:50 16° 329° (NNW) 14:24:07 435.350 FM
50 SAT 25 Sep 14:23:06 14:26:25 70° 101° (ESE) 14:29:42 437.505
BUGSAT 1 25 Sep 14:36:36 14:37:54 11° 269° (W) 14:39:10 437.445
AO-7 25 Sep 14:37:46 14:45:08 37° 61° (ENE) 14:52:29 .
RS-15 25 Sep 14:43:08 14:55:10 83° 59° (ENE) 15:06:30 29.354- 29.394
PCSat 25 Sep 14:44:05 14:49:29 86° 119° (ESE) 14:54:57 145.827
SO-50 25 Sep 14:56:33 15:00:29 29° 309° (NW) 15:04:26 436.795
UKube-1 25 Sep 15:07:23 15:11:42 83° 284° (WNW) 15:16:00 .
BEESAT 25 Sep 15:12:36 15:14:30 12° 91° (E) 15:16:24 436.000
DX 1 25 Sep 15:19:05 15:23:06 38° 289° (WNW) 15:27:06 434.975-435.025
ITAMSAT 1 25 Sep 15:23:41 15:28:31 42° 70° (ENE) 15:33:21 435.822/435.867
MOZHAYETS 4 25 Sep 15:24:12 15:27:11 17° 93° (E) 15:30:08
ITUPSAT 1 25 Sep 16:12:44 16:17:28 53° 101° (E) 16:22:09 437.325
DOVE 4 25 Sep 16:23:10 16:24:46 12° 65° (ENE) 16:26:21 437.250
AO-7 25 Sep 16:29:38 16:37:37 50° 258° (WSW) 16:45:39 .
PCSat 25 Sep 16:30:26 16:33:36 15° 315° (NW) 16:36:46 145.827
BEESAT 25 Sep 16:47:54 16:52:39 64° 286° (WNW) 16:57:23 436.000
RS-15 25 Sep 16:57:29 17:06:03 25° 260° (W) 17:14:23 29.354- 29.394
MOZHAYETS 4 25 Sep 17:00:07 17:04:31 44° 288° (WNW) 17:08:52
ITAMSAT 1 25 Sep 17:04:12 17:08:06 22° 266° (W) 17:12:01 435.822/435.867
KKS-1 25 Sep 17:05:42 17:07:45 13° 92° (E) 17:09:46 437.445
XW-2D 25 Sep 17:21:51 17:23:36 13° 66° (ENE) 17:25:22 145.860 - 145.880
CUTE-I 25 Sep 17:28:57 17:32:39 20° 64° (ENE) 17:36:23 437.470
HO-68 25 Sep 17:30:47 17:33:23 12° 52° (NE) 17:36:00 435.675
XW-2F 25 Sep 17:31:50 17:34:06 15° 68° (ENE) 17:36:24 145.980 - 146.000
CUBESAT XI-V 25 Sep 17:32:07 17:36:46 84° 101° (E) 17:41:22 437.345
XW-2B 25 Sep 17:33:26 17:35:57 17° 68° (ENE) 17:38:28 145.730 - 145.750
NUDT-PHONESAT 25 Sep 17:47:15 17:49:45 17° 69° (ENE) 17:52:17 437.300
ITUPSAT 1 25 Sep 17:51:53 17:54:49 16° 296° (WNW) 17:57:43 437.325
XW-2C 25 Sep 17:53:55 17:57:18 30° 72° (ENE) 18:00:42 145.795 - 145.815
DOVE 4 25 Sep 17:57:40 18:02:01 56° 259° (W) 18:06:11 437.250
Tancredo 1 25 Sep 17:58:37 18:00:30 17° 132° (SE) 18:02:23 437.200
LilacSat-2 25 Sep 18:08:34 18:12:18 50° 75° (ENE) 18:16:05 437.200
KAITUO 1B 25 Sep 18:18:12 18:21:48 44° 74° (ENE) 18:25:26 145.475/437.950
BEESAT 3 25 Sep 18:33:17 18:36:01 18° 110° (ESE) 18:38:46 437.485
CUBEBUG 2 25 Sep 18:38:31 18:39:55 11° 63° (ENE) 18:41:20 437.445
KKS-1 25 Sep 18:40:14 18:44:34 53° 287° (WNW) 18:48:54 437.445
SEEDS 25 Sep 18:47:21 18:49:56 16° 67° (ENE) 18:52:31 437.485
XW-2D 25 Sep 18:53:44 18:57:22 42° 261° (W) 19:01:03 145.860 - 145.880
STARS 25 Sep 18:57:52 19:02:17 85° 286° (WNW) 19:06:42 437.465
XW-2A 25 Sep 19:00:11 19:01:17 11° 67° (ENE) 19:02:23 145.665 - 145.685
XW-2F 25 Sep 19:04:25 19:07:55 34° 263° (W) 19:11:26 145.980 - 146.000
AAUSAT CUBESAT 2 25 Sep 19:05:00 19:05:41 10° 64° (ENE) 19:06:22 437.432
XW-2B 25 Sep 19:06:26 19:09:51 31° 263° (W) 19:13:18 145.730 - 145.750
CUTE-I 25 Sep 19:07:08 19:12:17 51° 260° (W) 19:17:28 437.470
HO-68 25 Sep 19:12:44 19:19:47 68° 71° (ENE) 19:26:54 435.675
NO-84 25 Sep 19:15:38 19:18:06 22° 34° (NE) 19:20:28 435.350 FM
CUTE 1.7 + AOD 2 25 Sep 19:18:03 19:22:16 58° 75° (ENE) 19:26:29 437.475
NUDT-PHONESAT 25 Sep 19:20:07 19:23:23 28° 263° (W) 19:26:41 437.300
ZACube-1 25 Sep 19:22:59 19:24:16 11° 63° (ENE) 19:25:33 437.345
ISS 25 Sep 19:24:40 19:27:14 21° 132° (SE) 19:29:48 437.550
XW-2C 25 Sep 19:28:59 19:31:30 17° 267° (W) 19:34:03 145.795 - 145.815
Tancredo 1 25 Sep 19:32:22 19:34:47 29° 328° (NNW) 19:37:12 437.200
LilacSat-2 25 Sep 19:46:20 19:46:50 10° 269° (W) 19:47:21 437.200
KAITUO 1B 25 Sep 19:54:51 19:56:00 11° 269° (W) 19:57:08 145.475/437.950
